sat.trackr.live / text

‹ back to catalog

STARLINK-32258

NORAD 60939 · 2024-155R

PAYLOAD ACTIVE UNKNOWN

§ Identity

Operator
Country
US
Launch date
2024-08-31
Launch site
AFWTR
Launch vehicle
Mass (kg)
RCS (m²)

Purposes: comms

External: N2YO · Heavens-Above · Gunter

§ Orbital elements

Epoch: 2026-09-21T09:35:37.411584Z

Period
93.85 min
Inclination
53.1604°
Eccentricity
0.0001338
Mean motion
15.34390037 rev/d
Perigee alt
461.8 km
Apogee alt
463.6 km
Semi-major
6,840.9 km
B*
2.4225e-5
RAAN
297.1624°
Arg perigee
87.1881°
Mean anomaly
272.9275°
Rev number
11,630

§ Raw data

STARLINK-322581 60939U 24155R   26264.39973856  .00000442  00000+0  24225-4 0  99922 60939  53.1604 297.1624 0001338  87.1881 272.9275 15.34390037116307

JSON: /api/v1/satellites/60939 · /tle

For live sub-satellite position, see the globe view (requires WebGL).

§ Visibility from observer

Set your observer location to see the next 7 days of passes ≥ 10°. The values pass through the URL so the page stays shareable.

No JS? Fill the form by hand. The geolocation button needs JavaScript.